When you browse on this site, cookies collect data to enhance your experience and personalize the content and advertising you see.
Visit our Privacy Policy to learn more. By continuing to use the site, you agree to this use of cookies and data.
  • In Romania
  • List of Countries
  • For 7 days
  • Water Temperature
  • Satellite Maps
  • Weather Map
  • Weather Widgets
  • user-avatar
    Login

    Hourly Weather Nha Trang

    Today, 19 February, Tuesday

    Time Temperature Precipitation Wind Pressure Humidity
    00:00 +24°C° 0 mm 1 mps 750 mmHg 94%
    01:00 +24°C° 0 mm 1 mps 750 mmHg 94%
    02:00 +24°C° 0 mm 1 mps 750 mmHg 93%
    03:00 +24°C° 0 mm 1 mps 750 mmHg 93%
    04:00 +23°C° 0 mm 1 mps 749 mmHg 92%
    05:00 +24°C° 0 mm 1 mps 750 mmHg 89%
    06:00 +24°C° 0 mm 1 mps 750 mmHg 86%
    07:00 +25°C° 0 mm 1 mps 750 mmHg 84%
    08:00 +27°C° 0 mm 1 mps 750 mmHg 73%
    09:00 +30°C° 0 mm 1 mps 751 mmHg 62%
    10:00 +32°C° 0 mm 1 mps 751 mmHg 52%
    11:00 +34°C° 0 mm 2 mps 751 mmHg 51%
    12:00 +34°C° 0 mm 2 mps 750 mmHg 50%
    13:00 +35°C° 0 mm 3 mps 750 mmHg 49%
    14:00 +34°C° 0 mm 3 mps 749 mmHg 53%
    15:00 +33°C° 0 mm 3 mps 749 mmHg 57%
    16:00 +31°C° 0 mm 3 mps 749 mmHg 61%
    17:00 +29°C° 0 mm 2 mps 749 mmHg 71%
    18:00 +27°C° 0 mm 1 mps 749 mmHg 82%
    19:00 +23°C° 0 mm 0 mps 750 mmHg 93%
    20:00 +25°C° 0 mm 1 mps 750 mmHg 94%
    21:00 +24°C° 0 mm 1 mps 751 mmHg 94%
    22:00 +24°C° 0 mm 1 mps 751 mmHg 95%
    23:00 +24°C° 0 mm 1 mps 751 mmHg 94%

    Tomorrow, 20 February, Wednesday

    Time Temperature Precipitation Wind Pressure Humidity
    00:00 +24°C° 0 mm 2 mps 751 mmHg 94%
    01:00 +23°C° 0 mm 2 mps 751 mmHg 93%
    02:00 +23°C° 0 mm 2 mps 751 mmHg 92%
    03:00 +23°C° 0 mm 2 mps 751 mmHg 91%
    04:00 +23°C° 0 mm 2 mps 750 mmHg 90%
    05:00 +23°C° 0 mm 2 mps 751 mmHg 87%
    06:00 +24°C° 0 mm 2 mps 751 mmHg 84%
    07:00 +24°C° 0 mm 2 mps 751 mmHg 82%
    08:00 +27°C° 0 mm 2 mps 752 mmHg 71%
    09:00 +30°C° 0 mm 2 mps 752 mmHg 61%
    10:00 +32°C° 0 mm 2 mps 752 mmHg 51%
    11:00 +34°C° 0 mm 2 mps 752 mmHg 51%
    12:00 +34°C° 0 mm 2 mps 751 mmHg 51%
    13:00 +35°C° 0 mm 3 mps 750 mmHg 52%
    14:00 +34°C° 0 mm 3 mps 750 mmHg 56%
    15:00 +33°C° 0 mm 3 mps 749 mmHg 61%
    16:00 +31°C° 0 mm 3 mps 749 mmHg 66%
    17:00 +29°C° 0 mm 2 mps 749 mmHg 75%
    18:00 +27°C° 0 mm 2 mps 750 mmHg 85%
    19:00 +25°C° 0 mm 1 mps 750 mmHg 94%
    20:00 +25°C° 0 mm 1 mps 751 mmHg 95%
    21:00 +25°C° 0 mm 1 mps 751 mmHg 95%
    22:00 +25°C° 0 mm 1 mps 752 mmHg 95%
    23:00 +24°C° 0 mm 1 mps 751 mmHg 95%

    Day after tomorrow, 21 February, Thursday

    Time Temperature Precipitation Wind Pressure Humidity
    00:00 +24°C° 0 mm 1 mps 751 mmHg 95%
    01:00 +24°C° 0 mm 1 mps 751 mmHg 94%
    02:00 +24°C° 0 mm 1 mps 751 mmHg 94%
    03:00 +23°C° 0 mm 1 mps 750 mmHg 94%
    04:00 +23°C° 0 mm 1 mps 750 mmHg 94%
    05:00 +24°C° 0 mm 1 mps 750 mmHg 92%
    06:00 +24°C° 0 mm 2 mps 751 mmHg 90%
    07:00 +25°C° 0 mm 2 mps 751 mmHg 88%
    08:00 +27°C° 0 mm 2 mps 752 mmHg 76%
    09:00 +30°C° 0 mm 2 mps 752 mmHg 65%
    10:00 +32°C° 0 mm 2 mps 752 mmHg 53%
    11:00 +34°C° 0 mm 2 mps 751 mmHg 51%
    12:00 +34°C° 0 mm 2 mps 750 mmHg 48%
    13:00 +35°C° 0 mm 3 mps 749 mmHg 46%
    14:00 +34°C° 0 mm 3 mps 749 mmHg 50%
    15:00 +33°C° 0 mm 3 mps 748 mmHg 55%
    16:00 +31°C° 0 mm 3 mps 747 mmHg 59%
    17:00 +29°C° 0 mm 2 mps 748 mmHg 71%
    18:00 +27°C° 0 mm 2 mps 749 mmHg 82%
    19:00 +24°C° 0 mm 1 mps 749 mmHg 94%
    20:00 +24°C° 0 mm 1 mps 750 mmHg 94%
    21:00 +24°C° 0 mm 1 mps 750 mmHg 94%
    22:00 +24°C° 0 mm 1 mps 750 mmHg 94%
    23:00 +24°C° 0 mm 1 mps 750 mmHg 94%

    22 February, Friday

    Time Temperature Precipitation Wind Pressure Humidity
    00:00 +23°C° 0 mm 1 mps 750 mmHg 93%
    01:00 +23°C° 0 mm 1 mps 749 mmHg 93%
    02:00 +23°C° 0 mm 1 mps 749 mmHg 92%
    03:00 +23°C° 0 mm 1 mps 749 mmHg 92%
    04:00 +22°C° 0 mm 1 mps 748 mmHg 92%
    05:00 +23°C° 0 mm 1 mps 749 mmHg 89%
    06:00 +24°C° 0 mm 1 mps 749 mmHg 86%
    07:00 +24°C° 0 mm 1 mps 750 mmHg 84%
    08:00 +27°C° 0 mm 1 mps 750 mmHg 73%
    09:00 +29°C° 0 mm 1 mps 751 mmHg 62%
    10:00 +32°C° 0 mm 1 mps 751 mmHg 52%
    11:00 +34°C° 0 mm 2 mps 750 mmHg 48%
    12:00 +34°C° 0 mm 2 mps 749 mmHg 45%
    13:00 +35°C° 0 mm 3 mps 748 mmHg 41%
    14:00 +34°C° 0 mm 3 mps 748 mmHg 44%
    15:00 +32°C° 0 mm 2 mps 747 mmHg 48%
    16:00 +31°C° 0 mm 2 mps 747 mmHg 51%
    17:00 +29°C° 0 mm 2 mps 748 mmHg 64%
    18:00 +26°C° 0 mm 1 mps 748 mmHg 77%
    19:00 +23°C° 0 mm 1 mps 749 mmHg 91%
    20:00 +23°C° 0 mm 1 mps 749 mmHg 91%
    21:00 +23°C° 0 mm 1 mps 750 mmHg 91%
    22:00 +23°C° 0 mm 1 mps 750 mmHg 91%
    23:00 +22°C° 0 mm 1 mps 750 mmHg 89%

    23 February, Saturday

    Time Temperature Precipitation Wind Pressure Humidity
    00:00 +22°C° 0 mm 1 mps 749 mmHg 86%
    01:00 +21°C° 0 mm 2 mps 749 mmHg 84%
    02:00 +21°C° 0 mm 2 mps 749 mmHg 83%
    03:00 +21°C° 0 mm 2 mps 749 mmHg 82%
    04:00 +21°C° 0 mm 2 mps 749 mmHg 81%
    05:00 +21°C° 0 mm 2 mps 749 mmHg 79%
    06:00 +23°C° 0 mm 2 mps 750 mmHg 78%
    07:00 +23°C° 0 mm 2 mps 750 mmHg 76%
    08:00 +26°C° 0 mm 2 mps 751 mmHg 68%
    09:00 +29°C° 0 mm 2 mps 751 mmHg 61%
    10:00 +31°C° 0 mm 1 mps 751 mmHg 53%
    11:00 +32°C° 0 mm 2 mps 750 mmHg 50%
    12:00 +34°C° 0 mm 2 mps 749 mmHg 48%
    13:00 +34°C° 0 mm 3 mps 748 mmHg 45%
    14:00 +33°C° 0 mm 3 mps 748 mmHg 50%
    15:00 +31°C° 0 mm 3 mps 747 mmHg 54%
    16:00 +30°C° 0 mm 3 mps 747 mmHg 58%
    17:00 +28°C° 0 mm 2 mps 747 mmHg 70%
    18:00 +26°C° 0 mm 2 mps 748 mmHg 82%
    19:00 +23°C° 0 mm 1 mps 748 mmHg 93%
    20:00 +23°C° 0 mm 1 mps 749 mmHg 93%
    21:00 +23°C° 0 mm 1 mps 749 mmHg 93%
    22:00 +23°C° 0 mm 1 mps 750 mmHg 94%
    23:00 +22°C° 0 mm 1 mps 749 mmHg 91%

    24 February, Sunday

    Time Temperature Precipitation Wind Pressure Humidity
    00:00 +22°C° 0 mm 1 mps 749 mmHg 89%
    01:00 +22°C° 0 mm 1 mps 749 mmHg 87%
    02:00 +22°C° 0 mm 1 mps 749 mmHg 87%
    03:00 +22°C° 0 mm 1 mps 749 mmHg 86%
    04:00 +20°C° 0 mm 2 mps 749 mmHg 86%
    05:00 +21°C° 0 mm 2 mps 749 mmHg 84%
    06:00 +23°C° 0 mm 2 mps 749 mmHg 81%
    07:00 +23°C° 0 mm 2 mps 750 mmHg 79%
    08:00 +26°C° 0 mm 2 mps 750 mmHg 68%
    09:00 +29°C° 0 mm 2 mps 750 mmHg 57%
    10:00 +31°C° 0 mm 1 mps 750 mmHg 47%
    11:00 +32°C° 0 mm 2 mps 749 mmHg 41%
    12:00 +34°C° 0 mm 2 mps 748 mmHg 36%
    13:00 +35°C° 0 mm 2 mps 747 mmHg 30%
    14:00 +34°C° 0 mm 2 mps 747 mmHg 33%
    15:00 +32°C° 0 mm 2 mps 747 mmHg 35%
    16:00 +31°C° 0 mm 2 mps 746 mmHg 38%
    17:00 +29°C° 0 mm 2 mps 747 mmHg 51%
    18:00 +26°C° 0 mm 1 mps 747 mmHg 65%
    19:00 +23°C° 0 mm 1 mps 748 mmHg 78%
    20:00 +23°C° 0 mm 1 mps 748 mmHg 77%
    21:00 +23°C° 0 mm 1 mps 748 mmHg 76%
    22:00 +22°C° 0 mm 1 mps 749 mmHg 75%
    23:00 +21°C° 0 mm 2 mps 749 mmHg 74%
    Show more